Location: Tucson
(32.2217°N, 110.9265°W)
Time: 17:00:49
(UTC-07:00)

Transit 2A Rocket - Pass Details

Date: 10 August 2022
Orbit: 593 x 908 km, 66.7° (Epoch: 26 September)

Event Time Altitude Azimuth Distance (km) Brightness Sun altitude
Rises 03:28:18 0° 351° (N) 2,870 8.4 -25.9°
Reaches altitude 10° 03:31:03 10° 9° (N) 1,995 7.8 -25.4°
Maximum altitude 03:34:21 20° 57° (ENE) 1,495 7.3 -24.9°
Drops below altitude 10° 03:37:48 10° 104° (ESE) 2,100 7.7 -24.3°
Sets 03:40:46 0° 121° (ESE) 3,073 8.4 -23.8°
